Location: Stuttgart
(48.8069°N, 9.1544°E)
Time: 01:02:09
(UTC+01:00)

Envisat - Visible Passes

Search period start: 24 November 2017 00:00
Search period end: 04 December 2017 00:00
Orbit: 764 x 766 km, 98.2° (Epoch: 23 November)

Date Brightness Start Highest point End Pass type
(mag) Time Alt. Az. Time Alt. Az. Time Alt. Az.
24 Nov 5.1 18:24:46 11° NNE 18:24:46 11° NNE 18:25:06 10° NNE visible
24 Nov 5.5 20:04:59 13° NNW 20:04:59 13° NNW 20:05:29 10° NNW visible
25 Nov 5.2 19:27:54 14° N 19:27:54 14° N 19:28:35 10° N visible
26 Nov 5.1 18:50:50 12° NNE 18:50:50 12° NNE 18:51:22 10° N visible
27 Nov 5.5 19:53:58 12° N 19:53:58 12° N 19:54:20 10° NNW visible
28 Nov 5.2 19:16:53 13° N 19:16:53 13° N 19:17:22 10° N visible
29 Nov 5.2 18:39:47 11° NNE 18:39:47 11° NNE 18:40:02 10° NNE visible
30 Nov 5.4 19:42:54 11° N 19:42:54 11° N 19:43:10 10° N visible
01 Dec 5.3 19:05:48 11° N 19:05:48 11° N 19:06:06 10° N visible
03 Dec 5.4 19:31:49 11° N 19:31:49 11° N 19:31:59 10° N visible
